Regional Weather Roundup
Issued by NWS

Home | Current Version | Previous Version | Text Only | Print | Product List | Glossary Off
Versions: 1 2 3 4 5 6 7 8 9 10 11 12 13 14 15 16 17 18 19 20 21 22 23 24 25 26 27 28 29 30 31 32 33 34 35 36 37 38 39 40 41 42 43 44 45 46 47 48 49 50

000
ASUS43 KMPX 291201
RWRMN
WEATHER ROUNDUP FOR MINNESOTA
NATIONAL WEATHER SERVICE TWIN CITIES/CHANHASSEN MN
600 AM CST MON DEC 29 2014


NOTE: "FAIR" INDICATES FEW OR NO CLOUDS BELOW 12,000 FEET WITH NO
SIGNIFICANT WEATHER AND/OR OBSTRUCTIONS TO VISIBILITY. N/A MEANS
CURRENT SKY AND/OR WEATHER CONDITIONS ARE NOT AVAILABLE.

MNZ060>063-068>070-291300-
   Twin Cities Metro

CITY           SKY/WX    TMP DP  RH WIND       PRES   REMARKS
TWIN CITIES    CLOUDY     5  -3  69 N9        30.47R WCI  -9
6HR MIN TEMP:   5; 6HR MAX TEMP:  10;

ST PAUL        MOCLDY     5  -3  69 N9        30.50R WCI  -9
CRYSTAL        MOCLDY     4  -4  69 N5        30.47R WCI  -5
BLAINE         PTCLDY     3  -2  78 N6        30.47R WCI  -8
LAKEVILLE      MOCLDY     5  -2  72 N6        30.45R WCI  -6
EDEN PRAIRIE   MOCLDY     5  -3  69 N8        30.45R WCI  -8
6HR MIN TEMP:   5; 6HR MAX TEMP:  12;

SOUTH ST PAUL  MOCLDY     6  -3  67 N6        30.47R WCI  -5
LAKE ELMO      FAIR       5  -2  72 N8        30.47R WCI  -8
$$
MNZ001>005-007-008-013>017-022>024-027-028-291300-
   Northwest Minnesota

CITY           SKY/WX    TMP DP  RH WIND       PRES   REMARKS
BEMIDJI        PTCLDY   -15 -19  80 NW5       30.50R WCI -27
HALLOCK        MOCLDY   -18 -24  76 NW6       30.63S WCI -33
ROSEAU         PTCLDY   -15 -20  76 W7        30.57R WCI -31
WARROAD        PTCLDY   -18 -24  76 W5        30.54S WCI -31
THIEF RVR FALL MOCLDY   -15 -24  64 NW6       30.57R WCI -29
CROOKSTON      FAIR     -13 -18  77 N9        30.64R WCI -31
FOSSTON        PTCLDY   -17 -20  83 CALM      30.55R
DETROIT LAKES    N/A     -8 -11  84 N8        30.52R WCI -23
MOORHEAD       CLEAR     -8 -11  84 N13       30.60R WCI -28
PARK RAPIDS    CLEAR     -9 -14  78 N6        30.48R WCI -22
MAHNOMEN       FAIR     -11 -15  80 N8        30.53R WCI -27
$$
MNZ006-009>011-018-025>026-291300-
   North Central Minnesota

CITY           SKY/WX    TMP DP  RH WIND       PRES   REMARKS
BAUDETTE       PTCLDY   -16 -22  74 NW7       30.51R WCI -32
FLAG ISLAND    PTCLDY   -18 -24  76 NW13      30.52R WCI -41
INTL FALLS     MOCLDY   -17 -22  78 W5        30.48R WCI -30
6HR MIN TEMP: -17; 6HR MAX TEMP: -10;

WASKISH        PTCLDY   -15 -18  84 W6        30.52R WCI -29
BIG FORK       PTCLDY   -13 -18  77 NW3       30.48R
LONGVILLE      CLEAR     -8 -11  84 NW3       30.48R
GRAND RAPIDS   PTCLDY    -9 -15  77 NW10      30.44R WCI -28
CRANE LAKE     PTCLDY   -15 -18  84 CALM      30.49R
ORR            PTCLDY   -15 -20  76 NW8       30.42R WCI -32
COOK           PTCLDY   -15 -18  84 W5        30.45R WCI -27
WALKER         FAIR     -12 -16  81 NW3       30.48R
$$
MNZ012-019>021-037-291300-
   Northeast Minnesota

CITY           SKY/WX    TMP DP  RH WIND       PRES   REMARKS
DULUTH         CLEAR     -8 -14  74 NW13      30.39R WCI -28
6HR MIN TEMP:  -8; 6HR MAX TEMP:   0;

ELY            PTCLDY   -17 -20  83 W5        30.41R WCI -29
HIBBING        CLOUDY   -10 -17  71 NW10      30.44R HAZE    WCI -29
EVELETH        LGT SNOW  -9 -15  77 CALM      30.44R
DULUTH HARBOR  CLEAR      0  -9  65 CALM      30.50R
TWO HARBORS    CLEAR     -6 -13  71 CALM      30.40R
SILVER BAY     CLEAR     -6 -13  71 NW3       30.39R
GRAND MARAIS     N/A     -5 -15  62 W3        30.43R
G MARAIS ARPRT PTCLDY   -15 -22  70 NW12G17   30.26R WCI -36
$$
MNZ029>031-032-039>041-046>048-054>057-064-291300-
   West Central Minnesota

CITY           SKY/WX    TMP DP  RH WIND       PRES   REMARKS
FERGUS FALLS   CLEAR     -6 -13  71 N8        30.58R WCI -21
WHEATON        CLEAR     -8 -11  84 NW14      30.58R WCI -28
MORRIS         CLEAR    N/A N/A N/A NW13      30.50R
ALEXANDRIA     CLEAR     -1  -7  75 N10       30.47R WCI -17
ELBOW LAKE     FAIR      -4  -9  82 N10       30.51R WCI -22
WADENA         CLEAR     -8 -11  84 N7        30.48R WCI -22
GLENWOOD       CLEAR      0  -6  78 N8        30.47R WCI -15
APPLETON       PTCLDY     0  -8  71 NW12      30.54R WCI -18
BENSON         PTCLDY     0  -6  78 N9        30.51R WCI -16
ORTONVILLE     PTCLDY    -4  -9  77 NW10      30.54R WCI -21
MADISON        FAIR       1  -2  85 N15       30.53R WCI -18
WILLMAR        FAIR       5  -2  72 N7        30.48R WCI  -7
$$
MNZ033>034-036-042>043-049>051-058-059-291300-
   Central Minnesota

CITY           SKY/WX    TMP DP  RH WIND       PRES   REMARKS
ST CLOUD       FAIR       3  -4  72 N7        30.48R WCI  -9
6HR MIN TEMP:   3; 6HR MAX TEMP:  10;

SAUK CENTRE    FAIR      -2  -7  79 N6        30.47R WCI -14
PAYNESVILLE    PTCLDY    -1  -6  82 NW5       30.48R WCI -12
AITKIN         CLEAR     -2  -9  71 NW3       30.46R
PINE RIVER     CLEAR     -8 -11  84 NW5       30.50R WCI -19
BRAINERD       CLEAR     -4  -8  83 N9        30.47R WCI -20
STAPLES        CLEAR     -8 -11  84 N7        30.48R WCI -22
LONG PRAIRIE   FAIR      -2  -8  78 N8        30.46R WCI -17
LITTLE FALLS   CLEAR      0  -8  71 N5        30.48R WCI -10
LITCHFIELD     PTCLDY     3   0  85 N6        30.47R WCI  -8
BUFFALO        MOCLDY     3  -3  74 N3        30.49R
MAPLE LAKE     PTCLDY     4  -1  79 NW6       30.48R WCI  -7
$$
MNZ037-044-045-052-053-291300-
   East Central Minnesota

CITY           SKY/WX    TMP DP  RH WIND       PRES   REMARKS
PRINCETON      PTCLDY     1  -4  78 NW5       30.47R WCI  -8
MORA           CLEAR      0  -8  71 N7        30.48R WCI -13
CAMBRIDGE      PTCLDY     1  -6  71 CALM      30.46R
RUSH CITY      MOCLDY     0  -6  78 N3        30.48R
MOOSE LAKE     FAIR      -4  -9  77 N6        30.45R WCI -16
CLOQUET        CLEAR     -8 -13  77 NW9       30.43R WCI -25
MCGREGOR       CLEAR     -4  -8  84 NW7       30.46R WCI -18
$$
MNZ071>073-080-081-089-090-097-098-291300-
   Southwest Minnesota

CITY           SKY/WX    TMP DP  RH WIND       PRES   REMARKS
MONTEVIDEO     PTCLDY     0  -4  85 N12       30.53R WCI -18
GRANITE FALLS  MOCLDY     3  -1  81 NW12      30.51R WCI -13
CANBY          PTCLDY    -1  -5  82 N8G17     30.53R WCI -16
MARSHALL       MOCLDY     1  -6  71 N18       30.47R WCI -19
REDWOOD FALLS  MOCLDY     8   1  73 N6        30.47R WCI  -2
OLIVIA         MOCLDY     9   3  78 N9        30.47R WCI  -5
PIPESTONE      CLOUDY     3   0  85 NE10G16   30.39R WCI -12
WINDOM         MOCLDY     9   3  78 N15       30.41R WCI  -8
WORTHINGTON    MOCLDY     9 N/A N/A N16       30.38R WCI  -9
JACKSON        CLOUDY    12   5  73 VRB13     30.38R WCI  -3
TRACY          CLOUDY     6   2  86 N12       30.45R WCI -10
SLAYTON        CLOUDY     4   0  86 N15G21    30.40R WCI -15
$$
MNZ065>067-074>077-082>085-091>093-291300-
   South Central Minnesota

CITY           SKY/WX    TMP DP  RH WIND       PRES   REMARKS
MANKATO        MOCLDY     9   0  66 N13       30.43R WCI  -7
NEW ULM        MOCLDY     7   1  78 N3        30.46R
ST JAMES       MOCLDY    10   3  72 N15       30.45R WCI  -6
FAIRMONT       CLOUDY    10   3  72 N9        30.39R WCI  -2
GLENCOE        MOCLDY     6   2  84 N6        30.46R WCI  -5
FARIBAULT      MOCLDY     7   0  72 N6        30.43R WCI  -3
OWATONNA       MOCLDY     9   0  66 N10       30.40R WCI  -6
ALBERT LEA     MOCLDY    10   3  72 N6        30.38R WCI   1
$$
MNZ078>079-086>088-094>096-291300-
   Southeast Minnesota

CITY           SKY/WX    TMP DP  RH WIND       PRES   REMARKS
ROCHESTER      CLOUDY     9   1  70 N10       30.36R WCI  -5
6HR MIN TEMP:   9; 6HR MAX TEMP:  13;

RED WING       PTCLDY     7  -2  66 CALM      30.45R
STANTON        MOCLDY     8   0  70 N9        30.43R WCI  -6
DODGE CENTER   MOCLDY     7   1  78 N9        30.37R WCI  -7
WINONA         MOCLDY    12   5  73 CALM      30.43R
AUSTIN         MOCLDY    10   3  72 NE7       30.36R WCI   0
PRESTON        CLOUDY     9   4  81 N7        30.36R WCI  -2
$$
ABBREVIATIONS USED IN REMARKS
   TC - TEMPERATURES IN CELSIUS
  WCI - WIND CHILL INDEX
   HX - HEAT INDEX
  VSB - VISIBILITY
$$


USA.gov is the U.S. government's official web portal to all federal, state and local government web resources and services.